Wind_Speed
42 42 41 39 36 35 33 32 30 28 27 25 23 22 21 20 19 18 18 20 20 21 23 24 25 25 26 26 26 27 28 29 30 31 32 33 34 35
45 44 44 43 41 38 36 35 33 31 29 27 25 23 22 21 20 19 18 18 19 20 21 22 23 23 24 23 24 25 25 26 28 29 30 31 33 33
49 48 47 46 44 42 40 38 35 33 31 29 27 25 23 22 21 19 18 18 19 20 21 22 23 24 25 25 25 25 25 25 26 27 28 29 30 31
55 53 51 50 48 46 43 41 38 36 34 31 29 27 25 23 21 20 19 18 19 21 22 23 24 25 26 26 26 26 26 26 26 26 27 28 29 30
60 58 55 54 52 49 47 45 42 39 36 34 31 28 26 24 22 20 19 19 20 21 23 24 26 26 27 27 26 26 26 26 26 26 27 27 27 28
65 62 59 56 54 52 51 48 45 42 39 36 33 31 28 26 24 21 20 20 20 21 23 24 25 26 27 27 28 27 27 26 27 27 26 27 27 27
69 66 63 60 56 54 53 51 48 45 42 39 35 32 29 27 24 22 20 20 20 21 23 24 25 26 27 27 27 27 27 27 26 26 26 26 26 26
71 69 66 64 60 57 55 53 50 47 43 40 37 33 31 28 25 23 21 20 20 20 21 22 24 25 26 26 26 26 26 25 25 26 25 25 25 25
68 68 67 67 64 57 55 54 52 49 46 42 38 35 33 30 27 24 22 21 21 21 21 22 23 23 24 25 25 24 24 24 24 24 24 24 24 23
57 63 65 65 65 63 58 54 52 49 46 44 40 37 34 31 28 25 23 21 21 21 22 21 22 23 24 24 23 24 23 23 23 23 23 22 22 22
46 52 58 61 61 61 58 55 52 50 47 44 41 38 36 33 29 26 23 21 20 21 21 21 21 22 23 23 23 23 23 23 22 22 22 21 20 20
40 44 49 55 58 58 57 55 53 51 49 45 42 39 36 33 30 27 25 23 21 21 21 21 21 22 22 22 22 22 22 22 22 21 20 20 19 19
36 38 42 47 52 55 56 55 52 50 49 46 43 40 37 33 31 28 26 24 23 23 22 22 22 22 22 22 21 21 21 21 21 20 19 18 18 17
35 35 37 41 46 51 55 56 54 51 49 47 44 41 38 34 31 29 27 26 25 24 23 23 23 22 22 21 21 20 20 19 19 19 18 17 17 17
33 34 35 37 42 48 53 55 54 51 48 47 44 41 37 34 32 30 28 26 25 24 23 22 22 22 21 20 19 19 18 18 18 18 18 17 17 16
31 31 32 35 38 44 51 54 52 51 48 45 43 41 38 36 33 31 29 27 25 24 23 22 22 21 20 19 18 18 18 18 18 18 18 17 17 16
30 29 30 33 37 41 47 51 52 50 48 46 43 41 39 37 34 31 29 27 26 24 24 22 21 20 18 18 18 18 19 19 19 19 18 18 18 17
29 28 29 32 37 40 45 50 51 49 47 45 42 40 38 36 33 31 29 27 26 25 23 22 21 20 19 18 18 19 19 19 19 19 19 18 18 19
29 28 30 33 36 39 44 49 51 50 47 45 42 40 37 36 34 31 29 28 26 25 24 23 22 21 20 20 20 21 21 21 21 20 20 20 20 20
28 29 31 34 36 39 45 50 50 48 46 44 41 39 37 34 33 31 30 29 28 26 25 23 22 22 21 22 22 22 23 22 22 21 21 21 22 23
27 30 31 33 37 40 47 51 49 47 45 41 39 37 36 34 33 31 30 29 28 26 25 24 23 23 22 22 23 23 23 23 22 22 22 22 24 25
25 27 28 32 36 41 46 50 47 45 43 40 38 36 35 34 32 30 29 28 28 27 26 24 23 23 23 23 24 24 24 24 23 24 24 25 27 28
22 24 27 32 37 42 46 47 45 43 41 38 37 35 33 32 30 30 29 28 27 26 24 23 23 24 24 24 24 24 24 25 25 26 27 28 30 31
Wind_Direction
240 239 238 238 238 239 241 244 249 254 259 263 269 274 279 281 283 283 280 272 262 257 249 245 244 245 244 243 242 241 242 242 243 245 247 247 248 248
240 240 239 239 239 238 239 242 245 250 256 262 268 273 277 279 281 282 279 270 260 255 247 242 242 240 241 241 242 243 245 246 247 249 249 249 249 249
239 240 239 240 239 239 239 240 242 246 251 258 264 270 274 277 279 280 279 269 260 251 245 242 241 241 241 243 244 246 248 249 250 251 251 251 250 250
237 239 239 239 239 239 238 239 240 243 247 253 259 264 268 273 277 279 277 269 260 252 246 244 244 244 244 246 247 248 250 252 252 252 252 251 251 251
236 237 238 238 238 238 238 238 239 241 244 248 253 258 263 267 272 276 275 268 260 253 247 245 246 246 246 247 248 250 253 253 252 252 252 253 254 252
234 235 236 236 237 237 238 238 237 238 240 244 248 254 257 262 266 270 270 266 260 254 249 247 247 246 247 248 249 251 252 253 253 253 253 253 253 253
233 233 233 234 234 235 235 236 236 236 237 240 244 249 253 256 261 263 265 264 260 254 249 247 248 248 249 249 250 250 251 252 252 252 253 253 253 252
236 234 233 232 232 233 233 234 234 234 235 236 239 243 248 252 255 258 260 260 257 254 250 246 246 248 248 248 248 249 249 250 250 251 252 252 252 252
238 236 234 233 232 231 231 232 231 231 232 233 236 239 243 248 251 253 255 256 254 252 249 247 247 247 247 246 247 248 248 249 250 252 252 252 253 252
239 237 235 234 234 233 231 230 230 229 229 230 232 235 239 243 246 248 250 253 251 249 248 248 249 248 247 247 248 248 249 251 251 250 249 250 251 249
238 237 235 234 232 231 230 229 228 227 227 227 229 231 235 239 241 243 247 248 247 246 245 247 248 247 246 246 249 250 249 249 250 249 246 245 246 244
237 235 233 232 231 229 227 226 225 224 225 225 225 227 230 233 236 238 241 243 244 244 244 245 245 245 246 249 250 251 249 247 248 247 243 241 241 239
234 233 230 228 228 226 224 222 221 220 221 221 222 224 226 228 230 234 236 238 240 241 243 244 244 245 246 247 247 248 247 246 245 243 239 236 234 232
230 230 228 225 222 220 218 218 218 218 218 218 219 221 223 225 227 230 231 233 236 239 240 241 243 244 245 246 246 246 245 242 239 235 231 230 228 228
227 227 226 223 219 215 213 213 215 215 215 215 216 219 220 221 224 226 227 229 231 234 236 239 241 243 243 245 245 244 241 237 233 230 227 224 224 224
220 222 222 218 214 210 208 208 208 211 211 211 213 216 217 218 220 222 224 227 230 231 233 235 239 241 242 243 243 239 235 231 227 225 222 220 219 220
218 221 219 214 208 205 203 204 203 205 207 208 210 213 214 215 217 218 220 224 226 228 230 233 236 237 238 240 239 236 231 226 221 219 218 220 223 226
217 219 216 210 203 200 200 200 200 201 203 204 207 210 211 213 214 216 219 221 223 226 228 231 234 235 235 235 233 229 225 221 218 219 222 225 230 236
217 216 210 202 198 196 195 194 194 196 199 201 204 206 208 210 212 214 217 219 222 225 228 230 232 232 231 230 228 222 219 219 221 224 228 233 239 246
215 211 206 201 196 193 191 188 189 191 194 197 202 204 206 208 210 212 214 217 221 224 226 228 228 229 228 227 224 222 220 221 224 229 235 241 249 257
210 208 204 200 195 193 189 186 185 186 189 193 198 201 204 206 208 210 212 215 220 223 225 226 227 227 226 224 221 221 222 226 231 237 244 251 259 265
205 204 199 196 195 190 188 184 182 183 186 191 196 200 203 205 207 209 212 216 219 222 224 225 225 223 221 219 220 223 227 232 238 245 252 259 265 270
192 189 188 190 188 187 184 180 181 183 185 190 196 198 201 203 207 210 212 215 219 221 222 222 221 220 221 222 225 229 234 240 246 253 259 265 270 274
Height
5752 5756 5760 5764 5768 5772 5775 5778 5781 5784 5786 5787 5788 5788 5787 5786 5785 5784 5784 5784 5785 5786 5788 5790 5793 5795 5798 5801 5803 5806 5809 5812 5815 5818 5820 5823 5825 5828
5739 5744 5748 5753 5757 5761 5766 5769 5773 5776 5778 5780 5781 5781 5781 5781 5780 5779 5779 5779 5779 5781 5782 5784 5787 5789 5792 5795 5798 5800 5803 5805 5808 5811 5813 5815 5818 5820
5726 5731 5736 5740 5746 5750 5755 5760 5764 5767 5770 5772 5774 5775 5775 5775 5775 5774 5774 5774 5775 5776 5778 5780 5782 5785 5788 5790 5793 5795 5797 5800 5802 5804 5806 5808 5810 5812
5711 5716 5722 5727 5733 5738 5744 5749 5754 5758 5762 5765 5767 5768 5769 5769 5769 5769 5769 5769 5770 5771 5772 5775 5777 5780 5783 5785 5787 5790 5792 5794 5796 5798 5800 5801 5803 5805
5695 5701 5707 5713 5719 5725 5731 5737 5743 5748 5752 5756 5759 5761 5762 5763 5763 5763 5763 5763 5764 5765 5767 5769 5772 5775 5777 5780 5782 5784 5786 5788 5789 5791 5793 5794 5796 5797
5677 5684 5691 5698 5705 5711 5718 5724 5731 5737 5742 5746 5750 5753 5755 5756 5757 5757 5758 5758 5759 5760 5762 5764 5766 5769 5771 5774 5776 5777 5779 5781 5782 5784 5785 5787 5789 5790
5657 5666 5674 5682 5689 5696 5703 5710 5718 5725 5731 5736 5741 5744 5748 5749 5750 5751 5752 5752 5753 5755 5756 5759 5761 5763 5765 5767 5769 5771 5772 5774 5775 5777 5778 5780 5782 5784
5638 5647 5656 5664 5672 5680 5688 5696 5704 5712 5719 5726 5731 5736 5739 5742 5743 5745 5746 5747 5748 5750 5751 5753 5755 5757 5759 5761 5762 5764 5766 5767 5769 5770 5772 5774 5775 5777
5620 5629 5638 5647 5655 5664 5673 5681 5690 5699 5708 5715 5721 5726 5731 5734 5736 5738 5739 5741 5742 5744 5746 5747 5749 5751 5753 5755 5756 5757 5759 5761 5762 5764 5766 5768 5769 5771
5602 5611 5621 5630 5639 5648 5658 5667 5678 5687 5696 5704 5711 5716 5721 5725 5728 5730 5732 5734 5736 5738 5740 5742 5743 5745 5747 5749 5750 5752 5753 5755 5757 5758 5760 5762 5763 5765
5587 5595 5604 5614 5624 5634 5645 5655 5665 5675 5684 5692 5700 5706 5712 5717 5720 5723 5726 5728 5730 5732 5734 5736 5738 5740 5741 5743 5745 5746 5748 5750 5751 5753 5755 5756 5758 5760
5575 5581 5589 5599 5608 5619 5631 5643 5654 5664 5673 5682 5690 5696 5702 5708 5712 5716 5719 5722 5724 5726 5728 5731 5733 5734 5736 5738 5739 5741 5742 5744 5746 5747 5749 5751 5753 5755
5563 5569 5575 5584 5594 5606 5619 5631 5642 5652 5662 5671 5680 5687 5694 5699 5704 5709 5712 5716 5719 5721 5723 5725 5727 5729 5731 5733 5734 5735 5737 5739 5741 5742 5744 5747 5749 5751
5553 5559 5564 5572 5581 5592 5606 5619 5630 5641 5652 5662 5670 5678 5686 5692 5697 5701 5705 5709 5712 5715 5717 5719 5721 5724 5726 5727 5729 5730 5732 5733 5736 5738 5740 5742 5745 5747
5544 5549 5555 5562 5570 5580 5593 5607 5619 5631 5642 5653 5662 5670 5678 5684 5689 5694 5698 5702 5705 5708 5711 5713 5716 5718 5720 5722 5724 5725 5727 5729 5731 5734 5736 5738 5741 5743
5536 5542 5547 5554 5562 5571 5583 5596 5609 5622 5634 5644 5654 5662 5669 5676 5682 5687 5691 5695 5699 5702 5705 5707 5710 5712 5714 5716 5718 5720 5722 5725 5727 5729 5732 5734 5736 5739
5529 5535 5541 5547 5554 5563 5575 5587 5600 5613 5625 5636 5645 5654 5662 5668 5674 5680 5684 5689 5693 5696 5699 5702 5704 5707 5709 5711 5713 5715 5718 5720 5723 5725 5728 5730 5733 5735
5524 5529 5535 5541 5549 5557 5568 5580 5593 5606 5617 5628 5638 5647 5654 5662 5668 5673 5678 5682 5686 5690 5693 5696 5699 5701 5704 5706 5709 5711 5713 5716 5719 5721 5724 5726 5728 5730
5518 5523 5529 5536 5543 5552 5562 5574 5587 5599 5611 5622 5632 5640 5648 5655 5661 5667 5672 5676 5680 5684 5687 5690 5693 5696 5699 5701 5704 5707 5709 5712 5715 5717 5719 5721 5723 5724
5513 5518 5524 5531 5539 5547 5557 5569 5580 5593 5605 5616 5626 5634 5642 5649 5655 5661 5666 5670 5674 5678 5681 5684 5688 5691 5693 5696 5699 5702 5705 5707 5710 5712 5714 5716 5717 5718
5509 5514 5520 5527 5535 5543 5554 5564 5577 5589 5601 5611 5621 5629 5637 5643 5649 5655 5660 5664 5669 5672 5675 5679 5682 5685 5688 5691 5694 5697 5700 5702 5705 5707 5708 5709 5710 5710
5506 5512 5518 5525 5533 5541 5551 5563 5575 5587 5598 5608 5617 5625 5632 5638 5644 5649 5654 5659 5663 5666 5670 5674 5677 5680 5683 5686 5689 5692 5695 5697 5699 5700 5702 5703 5703 5702
5505 5511 5518 5524 5532 5542 5552 5563 5575 5586 5597 5606 5614 5622 5628 5634 5640 5645 5649 5654 5658 5662 5666 5669 5672 5675 5679 5682 5685 5687 5690 5691 5693 5694 5695 5695 5694 5694